Location: Gourdan-Polignan
(43.0709°N, 0.5748°E)
Time: 11:08:15
(UTC+00:00)

Cosmos 2237 Rocket - Pass Details

Date: 15 May 2026
Orbit: 833 x 849 km, 71.0° (Epoch: 6 June)

Event Time Altitude Azimuth Distance (km) Brightness Sun altitude
Rises 22:37:27 0° 343° (NNW) 3,417 6.7 -25.4°
Reaches altitude 10° 22:40:23 10° 357° (N) 2,476 5.6 -25.6°
Maximum altitude 22:44:59 25° 51° (NE) 1,658 3.9 -25.9°
Enters shadow 22:47:04 20° 83° (E) 1,854 3.8 -26.0°
